Weather in Vinnitskoe

Russia / Republic of Crimea     44°58′54″N   33°44′06″E
temp.,
°C
wind,
m/s
gust,
m/s
humid.,
%
clouds,
%
prec.,
mm/h
press.,
hPa
HPBL,
m
1 march, mon
mon100:00+3n128890 0.1 1025155
03:00+3ssw118595 0.3 102490
06:00+2s1189100 0.1 102489
09:00+3e1186100 0.1 1025233
12:00+5nne226199 0.0 1026946
15:00+6n2355100 0.0 10261129
18:00+6nne345782 0.0 10271050
21:00+3ene477265 0.0 1029198
2 march, tue
tue200:00+1ene34840 0.0 103085
03:000ne23860 0.0 103151
06:000ne22860 0.0 103129
09:00+2nne22770 0.0 1031163
12:00+5wnw32580 0.0 1031946
15:00+5w54580 0.0 1030764
18:00+4w56650 0.0 1027799
21:00+3wsw487527 0.0 1027357
3 march, wed
wed300:00+3sw598036 0.0 1025284
03:00+5wsw8128160 0.0 1023707
06:00+5wnw588483 0.0 1022334
09:00+4n487882 0.0 1023552
12:00+6n6866100 0.1 10251134
15:00+8n564974 0.1 10261387
18:00+7n36520 0.0 1027376
21:00+4ne11610 0.0 102931
4 march, thu
thu400:00+3se12650 0.0 102926
03:00+2sse23680 0.0 102827
06:00+1sse23670 0.0 102732
09:00+4s34600 0.0 1027177
12:00+8sw56540 0.0 10251106
15:00+8sw78570 0.0 10241104
18:00+6sw68630 0.0 1022858
21:00+4ssw510760 0.0 1021417
5 march, fri
fri500:00+3ssw511820 0.0 1020396
03:00+3ssw511830 0.0 1019367
06:00+3ssw511850 0.0 1018303
09:00+5ssw611720 0.0 1018496
12:00+9ssw811591 0.0 1017649
15:00+10sw811572 0.0 1016683
18:00+9ssw813674 0.0 1015484
21:00+7ssw7157220 0.0 1015408